This is the latest recevied weather packets stored in our database for station/object EB2EMZ-15. If no packets are shown the sender has not sent any weather packets the latest 10 day(s).
| Time | Temp. | Humidity | Pressure | Rain* | Wind** | Luminosity | Snow |
|---|---|---|---|---|---|---|---|
| 1778055016 | 18.33° C | 71% | 993.7 hPa | 0 mm | - | - | - |
| 1778054712 | 17.78° C | 73% | 993.7 hPa | 0 mm | - | - | - |
| 1778054412 | 17.22° C | 73% | 993.7 hPa | 0 mm | - | - | - |
| 1778054112 | 16.67° C | 74% | 993.7 hPa | 0 mm | - | - | - |
| 1778053817 | 16.67° C | 74% | 993.7 hPa | 0 mm | - | - | - |
| 1778053511 | 16.11° C | 76% | 993.7 hPa | 0 mm | - | - | - |
| 1778053215 | 16.11° C | 76% | 993.6 hPa | 0 mm | - | - | - |
| 1778052912 | 15.56° C | 77% | 993.7 hPa | 0 mm | - | - | - |
| 1778052614 | 15° C | 81% | 993.7 hPa | 0 mm | - | - | - |
| 1778052311 | 13.89° C | 84% | 993.7 hPa | 0 mm | - | - | - |
| 1778052013 | 12.78° C | 83% | 993.7 hPa | 0 mm | - | - | - |
| 1778051711 | 12.22° C | 83% | 993.7 hPa | 0 mm | - | - | - |
| 1778051414 | 12.22° C | 84% | 993.8 hPa | 0 mm | - | - | - |
| 1778051112 | 12.22° C | 84% | 993.7 hPa | 0 mm | - | - | - |
| 1778050812 | 12.78° C | 84% | 993.7 hPa | 0 mm | - | - | - |
| 1778050511 | 12.78° C | 84% | 993.7 hPa | 0 mm | - | - | - |
| 1778050214 | 12.78° C | 85% | 993.6 hPa | 0 mm | - | - | - |
| 1778049911 | 11.67° C | 87% | 993.6 hPa | 0 mm | - | - | - |
| 1778049614 | 11.11° C | 87% | 993.3 hPa | 0 mm | - | - | - |
| 1778049312 | 10.56° C | 87% | 993.3 hPa | 0 mm | - | - | - |
| 1778049015 | 10.56° C | 87% | 993.3 hPa | 0 mm | - | - | - |
| 1778048712 | 10.56° C | 88% | 993.3 hPa | 0 mm | - | - | - |
| 1778048415 | 10° C | 88% | 993.5 hPa | 0 mm | - | - | - |
| 1778048111 | 10° C | 88% | 993.4 hPa | 0 mm | - | - | - |
| 1778047815 | 10° C | 88% | 993.4 hPa | 0 mm | - | - | - |
* Rain latest hour (hover to see other rain measurements)
** Current wind speed in m/s (hover to see current wind gust speed)